Starlink 30162

operational
NORAD ID: 57446 Int'l Des: 2023-105 Owner: SPXS Country: US Constellation: starlink
LEOCIRCULAR

About Starlink 30162

Description loading...

Live Position

Loading 3D Globe...

Upcoming Passes

Altitude History

Altitude vs Time

uPlot chart will show altitude changes over time

Two-Line Element Set

1 57446U 23105S 25314.03358784 .00000800 00000-0 74301-4 0 9997
2 57446 43.0033 178.8781 0001133 272.0444 88.0269 15.02533492127717
Epoch: Nov 10, 2025 • Age: 37 hours

Current Status

Altitude 560.9 km
Velocity 7.59 km/s
Sub-Earth Point 34.04°N, 40.54°W
Launch Date Jul 24, 2023
Age 2.3 years
Type internet

Technical Details

Classification Payload
Mass 730.00 kg
Dry Mass 700.00 kg
Total Mass 730.00 kg
Length 0.30 m
Diameter 4.10 m
Span 29.00 m
Shape Box + pan
Manufacturer SPXS
Bus Type Starlink V2M
Phase Status In Orbit
Owner/State SPXS/US

Large Constellations

Loading constellations...